Hatsu Ethic — VQFS4 — position and weather

sailwx.info

Track history (hours):
 
Tides and Currents Weather Stations Pressure Air Temp Water Temp Dewpoint Dewpoint Depression Visibility Wind Speed Wind Dir Waves Ship Positions

Hatsu Ethic

Last reported at 2014-Oct-31 12:00 UTC. Time now 2014-Oct-31 13:38 UTC.
Position N 05°54' E 086°00'.

Type: Ship (hazmat cat D). MMSI: 235603000.

Wind from 260 at 23 knots

Waves 1.0 meters (3 feet), 4 second period

Barometer 1008.0 mb
Air temperature 27.5 ° C
Visibility: greater than 10.8 NM
Dewpoint 24.8 ° C
Water temperature 28.0 ° C

Date/timePositionNaut miles runAvg speedWind from/ knotsBaromVisibWave heightAir tempDewpointWater temp
2014-Oct-31 12:00N 05°54' E 086°00'15512.9 260 / 231008.010.8 1.027.524.828.0
2014-Oct-31 00:00N 06°00' E 088°36'8414.0 250 / 141009.5 5.4 0.527.024.328.0
2014-Oct-30 18:00N 06°06' E 090°00'   340 / 281009.510.8 1.027.025.028.0
2014-Oct-27 13:30N 01°11' E 103°50'1414.3
2014-Oct-27 12:33N 01°16' E 104°03'66615.7
2014-Oct-25 18:00N 10°54' E 109°36'21117.6 999 / 41013.010.8 28.028.028.0
2014-Oct-25 06:00N 14°18' E 110°30'41517.3 030 / 101012.010.8 0.529.026.227.0
2014-Oct-24 06:00N 20°36' E 113°30'12516.7 050 / 171017.010.8 0.526.522.826.0
2014-Oct-23 22:29N 22°34' E 114°16'1 0.9
2014-Oct-23 21:28N 22°34' E 114°16'0 0.0
2014-Oct-23 20:22N 22°34' E 114°16'0 0.0
2014-Oct-23 19:28N 22°34' E 114°16'0 0.0
2014-Oct-23 18:28N 22°34' E 114°16'0 0.0
2014-Oct-23 17:28N 22°34' E 114°16'0 0.0
2014-Oct-23 16:28N 22°34' E 114°16'0 0.0
2014-Oct-23 15:28N 22°34' E 114°16'0 0.0
2014-Oct-23 14:25N 22°34' E 114°16'19 0.7
2014-Oct-22 11:27N 22°18' E 114°06'11 9.7
2014-Oct-22 10:18N 22°22' E 113°55'5 6.7
2014-Oct-22 09:33N 22°27' E 113°54'0 0.3
2014-Oct-22 08:32N 22°27' E 113°54'0 0.0
2014-Oct-22 07:32N 22°27' E 113°54'0 0.0
2014-Oct-22 06:32N 22°27' E 113°54'0 0.0
2014-Oct-22 05:32N 22°27' E 113°54'0 0.0
2014-Oct-22 04:29N 22°27' E 113°54'0 0.0
2014-Oct-22 03:32N 22°27' E 113°54'0 0.0
2014-Oct-22 02:32N 22°27' E 113°54'0 0.0
2014-Oct-22 01:29N 22°27' E 113°54'0 0.0
2014-Oct-22 00:32N 22°27' E 113°54'0 0.0
2014-Oct-21 23:33N 22°27' E 113°54'2 2.1
2014-Oct-21 22:33N 22°25' E 113°53'12 8.4
2014-Oct-21 21:08N 22°20' E 114°05'11813.6
2014-Oct-21 12:31N 22°18' E 116°12'  
Track history (hours):
 
Tides and Currents Weather Stations Pressure Air Temp Water Temp Dewpoint Dewpoint Depression Visibility Wind Speed Wind Dir Waves Ship Positions

Hatsu Ethic

Last reported at 2014-Oct-31 12:00 UTC. Time now 2014-Oct-31 13:38 UTC.
Position N 05°54' E 086°00'.

Type: Ship (hazmat cat D). MMSI: 235603000.

Wind from 260 at 23 knots

Waves 1.0 meters (3 feet), 4 second period

Barometer 1008.0 mb
Air temperature 27.5 ° C
Visibility: greater than 10.8 NM
Dewpoint 24.8 ° C
Water temperature 28.0 ° C

Date/timePositionNaut miles runAvg speedWind from/ knotsBaromVisibWave heightAir tempDewpointWater temp
2014-Oct-31 12:00N 05°54' E 086°00'15512.9 260 / 231008.010.8 1.027.524.828.0
2014-Oct-31 00:00N 06°00' E 088°36'8414.0 250 / 141009.5 5.4 0.527.024.328.0
2014-Oct-30 18:00N 06°06' E 090°00'   340 / 281009.510.8 1.027.025.028.0
2014-Oct-27 13:30N 01°11' E 103°50'1414.3
2014-Oct-27 12:33N 01°16' E 104°03'66615.7
2014-Oct-25 18:00N 10°54' E 109°36'21117.6 999 / 41013.010.8 28.028.028.0
2014-Oct-25 06:00N 14°18' E 110°30'41517.3 030 / 101012.010.8 0.529.026.227.0
2014-Oct-24 06:00N 20°36' E 113°30'12516.7 050 / 171017.010.8 0.526.522.826.0
2014-Oct-23 22:29N 22°34' E 114°16'1 0.9
2014-Oct-23 21:28N 22°34' E 114°16'0 0.0
2014-Oct-23 20:22N 22°34' E 114°16'0 0.0
2014-Oct-23 19:28N 22°34' E 114°16'0 0.0
2014-Oct-23 18:28N 22°34' E 114°16'0 0.0
2014-Oct-23 17:28N 22°34' E 114°16'0 0.0
2014-Oct-23 16:28N 22°34' E 114°16'0 0.0
2014-Oct-23 15:28N 22°34' E 114°16'0 0.0
2014-Oct-23 14:25N 22°34' E 114°16'19 0.7
2014-Oct-22 11:27N 22°18' E 114°06'11 9.7
2014-Oct-22 10:18N 22°22' E 113°55'5 6.7
2014-Oct-22 09:33N 22°27' E 113°54'0 0.3
2014-Oct-22 08:32N 22°27' E 113°54'0 0.0
2014-Oct-22 07:32N 22°27' E 113°54'0 0.0
2014-Oct-22 06:32N 22°27' E 113°54'0 0.0
2014-Oct-22 05:32N 22°27' E 113°54'0 0.0
2014-Oct-22 04:29N 22°27' E 113°54'0 0.0
2014-Oct-22 03:32N 22°27' E 113°54'0 0.0
2014-Oct-22 02:32N 22°27' E 113°54'0 0.0
2014-Oct-22 01:29N 22°27' E 113°54'0 0.0
2014-Oct-22 00:32N 22°27' E 113°54'0 0.0
2014-Oct-21 23:33N 22°27' E 113°54'2 2.1
2014-Oct-21 22:33N 22°25' E 113°53'12 8.4
2014-Oct-21 21:08N 22°20' E 114°05'11813.6
2014-Oct-21 12:31N 22°18' E 116°12'  

Dump ship's entire track history